Погода в Дуровке

Россия / Пензенская область     52°30′42″N   43°24′35″E
темп.,
°C
ветер,
м/с
пор.,
м/с
влажн.,
%
обл.,
%
осадки,
мм/ч
давл.,
гПа
погр.,
м
14 апреля, ср
ср1400:00+10вюв496295 0.0 1027146
03:00+8вюв496665 0.0 1026133
06:00+7вюв4106991 0.0 1025147
09:00+14вюв6104760 0.0 1024431
12:00+18юв79307 0.0 10221184
15:00+19юв782988 0.0 10211611
18:00+16юв48415 0.0 1020180
21:00+12вюв46553 0.0 102072
15 апреля, чт
чт1500:00+10вюв366499 0.0 101979
03:00+9вюв346894 0.0 101957
06:00+8в357384 0.0 101881
09:00+14вюв585360 0.0 1017379
12:00+19юв563849 0.0 10161134
15:00+21юв452818 0.0 10151735
18:00+18вюв3343100 0.0 101539
21:00+14вюв3358100 0.0 101624
16 апреля, пт
пт1600:00+12в3464100 0.0 101559
03:00+10вюв336599 0.0 101624
06:00+10в3563100 0.0 101774
09:00+14в4651100 0.0 1017311
12:00+18вюв4538100 0.0 10171043
15:00+19вюв453296 0.0 10172220
18:00+17всв474758 0.0 1017165
21:00+12всв486382 0.0 1019138
17 апреля, сб
сб1700:00+10всв51183100 0.0 1020262
03:00+9всв51189100 0.0 1020243
06:00+8всв6119076 0.0 1020267
09:00+13в7106511 0.0 1020513
12:00+17в794671 0.0 10201461
15:00+18в783880 0.0 10192555
18:00+16в71147100 0.0 1020584
21:00+10зюз3484100 1.8 1022287
18 апреля, вс
вс1800:00+10в4866100 0.2 1023421
03:00+7всв61163100 0.6 1023328
06:00+6всв51167100 0.0 1024344
09:00+9в6950100 0.0 1024686
12:00+12в6739100 0.0 10241251
15:00+12в4741100 0.0 10241470
18:00+12в4846100 0.0 1023252
21:00+10в4957100 0.1 1024312